Location: Eaubonne
(48.9971°N, 2.2825°E)
Time: 17:18:27
(UTC+00:00)

Daily predictions for brighter satellites

Satellite Brightness Start Highest point End
(mag) Time Altitude Azimuth Time Altitude Azimuth Time Altitude Azimuth
Terra 3.9 20:01:47 10° E 20:04:24 15° NE 20:07:01 10° NNE
USA 215 3.9 19:58:45 10° NE 20:05:11 62° NNW 20:11:37 10° W
Meteor 1-11 Rocket 4.3 20:01:37 10° N 20:07:24 48° ENE 20:13:01 10° SE
Cosmos 1340 Rocket 4.4 20:05:42 10° NNE 20:08:54 22° ENE 20:12:03 10° ESE
Resurs 1-3 3.9 20:07:16 10° S 20:11:39 71° WSW 20:16:03 10° NNW
Cosmos 1898 Rocket 4.4 20:09:26 10° SSE 20:14:00 30° E 20:18:37 10° NE
CZ-2C R/B 4.4 20:12:21 10° NNE 20:16:33 36° E 20:20:48 10° SSE
Cosmos 923 Rocket 4.1 20:14:14 10° NNW 20:19:32 76° ENE 20:24:51 10° SSE
USA 245 3.6 20:18:58 10° ESE 20:20:53 23° ENE 20:23:03 10° N
ARIANE 5 R/B 3.5 20:19:06 10° SE 20:22:59 33° ENE 20:26:53 10° N
Cosmos 1271 Rocket 2.8 20:19:15 10° S 20:23:12 62° E 20:27:10 10° NNE
Cosmos 2278 Rocket 2.7 20:21:09 10° SW 20:26:47 66° WNW 20:32:26 10° NNE
Cosmos 1461 4.0 20:23:10 10° S 20:27:09 28° ESE 20:31:06 10° ENE
Cosmos 2369 Rocket 3.7 20:26:40 10° SE 20:30:09 17° E 20:33:39 10° ENE
Cosmos 1666 2.8 20:26:57 10° NNW 20:30:40 73° W 20:34:22 10° S
Cosmos 1818 3.8 20:25:59 10° NW 20:31:29 69° NE 20:36:36 12° SE
Meteor 1-10 Rocket 4.2 20:26:46 10° S 20:32:21 73° E 20:38:06 10° NNE
Landsat 7 3.9 20:28:58 10° SSE 20:33:43 90° ESE 20:38:31 10° NNW
SL-24 R/B - RUBIN 2 4.0 20:28:15 10° NW 20:33:47 83° SW 20:38:18 12° SE
Cosmos 1536 3.2 20:32:39 10° N 20:36:36 50° ENE 20:40:06 12° SSE
ERBS 2.2 20:34:19 10° NW 20:37:38 87° SSW 20:40:21 14° SE
SPOT 5 3.7 20:39:51 12° SE 20:44:21 43° ENE 20:49:24 10° N
Cosmos 2154 Rocket 4.1 20:38:22 10° N 20:44:41 69° ENE 20:50:44 11° SSE
Cosmos 1812 3.9 20:42:06 10° SSW 20:45:48 44° WNW 20:49:32 10° N
OBJECT-B 3.8 20:44:29 10° WSW 20:45:51 12° W 20:47:13 10° WNW
Nadezhda 1 Rocket 4.1 20:40:15 10° S 20:46:23 60° E 20:52:27 10° NNE
Cosmos 2074 Rocket 4.2 20:40:53 10° N 20:47:12 81° W 20:53:30 10° S
Cosmos 2184 Rocket 4.1 20:44:33 10° NNW 20:50:46 79° W 20:56:54 10° S
ERS-1 Rocket 3.4 20:49:06 14° SE 20:53:11 50° ENE 20:58:03 10° N
ISS -3.8 20:53:06 10° WSW 20:56:29 88° NNW 20:59:52 10° ENE
Cosmos 2112 Rocket 4.1 20:52:29 10° NNW 20:57:53 82° WSW 21:02:28 14° SSE
Cosmos 1869 Rocket 3.6 20:55:49 10° NNW 21:00:11 82° W 21:04:04 13° S
Cosmos 967 Rocket 4.4 20:55:08 10° SSW 21:01:20 71° ESE 21:07:37 10° NE
Spot 2 Rocket 3.5 21:00:39 14° SSE 21:05:02 89° E 21:10:07 10° NNW
JB-3 4.4 21:01:15 10° NNE 21:05:03 54° E 21:08:00 16° S
Cosmos 1937 Rocket 3.6 21:00:11 10° S 21:05:12 57° ESE 21:10:18 10° NNE
Cosmos 44 4.1 21:00:47 10° NW 21:06:00 49° WSW 21:10:07 15° S
Cosmos 2228 Rocket 3.3 21:03:28 10° SSW 21:07:55 74° W 21:12:28 10° N
Cosmos 1743 2.8 21:04:43 10° N 21:08:35 61° ENE 21:11:02 21° SSE
SPOT 1/Viking Rocket 3.9 21:05:52 11° S 21:10:51 63° WSW 21:16:01 10° NNW
RESURS DK-1 3.5 21:07:23 10° NNW 21:11:12 33° NE 21:13:58 16° ESE
Cosmos 2084 Rocket 4.2 21:09:25 10° NW 21:13:30 44° SW 21:16:25 18° S
Resurs 01 Rocket 3.3 21:09:45 10° SSW 21:13:39 30° W 21:17:34 10° NNW
Cosmos 1707 Rocket 3.6 21:14:44 16° S 21:18:06 64° E 21:22:30 10° NNE
Meteor 1-27 Rocket 4.0 21:12:40 10° SSW 21:18:34 79° WNW 21:24:33 10° N
CARTOSAT-1 3.6 21:15:33 17° S 21:18:48 76° WSW 21:23:09 10° NNW
Cosmos 1680 Rocket 4.4 21:17:30 10° NNW 21:22:34 45° WSW 21:26:59 13° S
Cosmos 858 Rocket 4.4 21:18:58 10° SSW 21:24:10 78° ESE 21:29:26 10° NNE
Cosmos 1867 4.0 21:23:54 14° S 21:28:14 41° ESE 21:33:21 10° NE
SJ 16-02 3.9 21:25:01 10° WSW 21:28:32 23° NW 21:32:05 10° N
Tianhe-1 2.8 21:26:19 10° SW 21:28:08 19° SSW 21:28:08 19° SSW
DNEPR-1 R/B 4.0 21:23:26 10° SW 21:29:20 86° NW 21:34:13 10° NE
Cosmos 2181 Rocket 4.3 21:25:49 20° SSE 21:29:50 48° E 21:35:41 10° NNE
Meteor 1-19 Rocket 4.4 21:28:38 21° SSE 21:31:57 49° E 21:37:11 10° NNE
Cosmos 2297 3.9 21:28:16 10° SW 21:33:57 74° WNW 21:39:39 10° NNE
Cosmos 44 Rocket 4.4 21:29:26 10° NNW 21:34:25 42° NE 21:38:15 16° ESE
BREEZE-M R/B 1.6 21:33:13 10° W 21:35:37 79° SSW 21:36:27 40° ESE
SL-27 R/B 4.0 21:33:57 10° N 21:36:46 25° ENE 21:38:02 20° E
BREEZE M DEB (TANK) 2.8 21:34:45 10° W 21:37:15 23° SW 21:37:17 23° SW
Cosmos 372 Rocket 3.9 21:36:41 17° S 21:40:34 65° ESE 21:45:38 10° NNE
Cosmos 1544 4.2 21:37:53 10° NNW 21:41:17 38° W 21:43:38 17° SSW
Terra 1.8 21:38:39 25° SSE 21:41:28 90° WSW 21:46:16 10° NNW
Cosmos 1515 3.6 21:39:36 25° S 21:41:43 86° E 21:45:32 10° N
Cosmos 1733 Rocket 3.0 21:38:32 10° N 21:42:53 87° W 21:45:11 27° S
Cosmos 1943 Rocket 2.3 21:38:32 10° SSW 21:44:10 79° WNW 21:49:48 10° NNE
Cosmos 2082 Rocket 4.3 21:40:44 10° WNW 21:44:24 18° W 21:48:04 10° SW
Cosmos 1340 Rocket 4.0 21:41:42 10° NNW 21:45:30 38° W 21:48:11 17° SSW
USA 215 4.4 21:41:32 10° ENE 21:47:40 44° N 21:53:47 10° WNW
Cosmos 1656 Rocket 4.0 21:46:52 26° SSE 21:49:31 43° ESE 21:54:44 10° NE
ATLAS 2AS CENTAUR R/B 3.9 21:44:16 10° NW 21:50:32 32° WSW 21:55:12 15° SSW
Cosmos 2341 Rocket 4.1 21:44:19 10° NNW 21:50:45 78° W 21:55:10 21° S
Okean 1 3.2 21:49:16 27° S 21:51:23 89° W 21:55:23 10° N
Cosmos 2218 Rocket 4.0 21:47:48 10° N 21:54:10 78° E 21:58:01 26° SSE
Cosmos 494 Rocket 4.4 21:53:07 10° NNW 21:58:12 52° ENE 22:00:49 27° SE
ARIANE 5 R/B 4.1 21:56:25 14° SSW 21:59:27 29° W 22:03:16 10° NW
SL-8 Rocket 4.1 21:56:29 10° N 22:02:50 80° W 22:06:45 25° S
H-2A R/B 3.5 21:59:34 10° NNE 22:03:46 82° WNW 22:05:59 27° SSW
Cosmos 1908 Rocket 3.7 22:00:26 10° N 22:04:54 62° ENE 22:06:34 36° SE
Cosmos 2298 Rocket 4.3 22:02:56 30° SSE 22:05:10 50° ESE 22:10:17 10° NNE
Cosmos 1461 4.0 22:01:29 10° WSW 22:06:03 51° NW 22:10:33 10° NNE
NOSS 2-1 (C) 4.5 22:06:08 10° NW 22:10:41 57° NE 22:14:45 21° ESE
Cosmos 2369 Rocket 2.2 22:08:17 13° SSW 22:13:24 85° WNW 22:19:07 10° NNE
ATLAS CENTAUR R/B 0.9 22:12:29 42° SSW 22:13:35 70° SE 22:17:23 10° NE
NOSS 2-1 (D) 4.4 22:12:59 10° NW 22:17:35 63° NE 22:21:25 23° ESE
Cosmos 1238 Rocket 4.2 22:15:08 10° NNW 22:20:32 47° W 22:23:11 24° SSW
Okean 1-7 3.2 22:21:21 42° SE 22:22:23 55° E 22:26:37 10° NNE
SPOT 5 4.4 22:19:04 16° SSW 22:22:29 32° W 22:27:17 10° NNW
COSMOS 2487 4.0 22:21:20 10° N 22:24:10 24° ENE 22:24:59 22° E
Cosmos 2344 4.3 22:17:07 10° NW 22:26:08 81° NE 22:35:50 19° SE
Spot 4 4.1 22:24:53 34° SE 22:26:47 58° ENE 22:31:33 10° N
Cosmos 2242 Rocket 3.6 22:27:54 43° SSE 22:29:16 72° E 22:33:46 10° NNE
Cosmos 2150 Rocket 3.9 22:28:55 32° S 22:31:25 75° ESE 22:36:41 10° NNE
Cosmos 1975 3.5 22:28:26 10° NNW 22:32:15 45° W 22:33:30 34° SW
Cosmos 1125 Rocket 3.5 22:31:07 37° S 22:33:03 63° ESE 22:38:13 10° NNE
ISS -2.9 22:30:11 10° WNW 22:33:29 51° N 22:36:27 12° ENE
Cosmos 1703 Rocket 3.5 22:34:26 46° S 22:35:43 78° E 22:40:10 10° NNE
Cosmos 1782 Rocket 3.5 22:33:17 10° N 22:37:44 74° E 22:38:55 47° SSE
Cosmos 1378 3.5 22:38:54 46° ESE 22:39:06 47° E 22:42:42 10° NNE
SL-08 R/B 4.5 22:35:08 10° N 22:41:26 84° W 22:44:29 33° S
Cosmos 1607 4.2 22:39:45 10° SW 22:46:13 74° NW 22:52:45 10° NE
RESURS DK-1 3.5 22:45:30 10° NW 22:49:10 31° WSW 22:49:50 29° SW
Cosmos 724 4.4 22:46:12 31° SSW 22:49:18 67° ESE 22:55:31 10° NE
Lacrosse 5 1.9 22:48:53 43° S 22:50:08 54° SE 22:55:06 10° ENE
Cosmos 1934 Rocket 4.3 22:46:42 10° N 22:52:42 55° ENE 22:55:20 32° SE
Cosmos 1805 3.7 22:51:22 10° N 22:55:10 46° ENE 22:55:42 43° ESE
Cosmos 1066 Rocket 4.4 22:55:52 39° SSE 22:57:48 60° E 23:03:17 10° NNE
Cosmos 1356 Rocket 3.4 22:56:39 10° NNW 23:00:59 80° WSW 23:01:50 56° S
Cosmos 2227 Rocket 3.8 22:57:44 10° NNW 23:02:36 28° NE 23:07:25 10° ESE
Cosmos 2297 Rocket 3.5 22:59:23 10° NNW 23:04:35 35° NE 23:08:40 15° ESE
Cosmos 1821 Rocket 4.1 22:58:41 10° NNW 23:05:05 74° W 23:07:52 36° S
Okean 3 3.3 23:06:38 59° S 23:07:23 87° ESE 23:11:38 10° N
Meteor 1-12 Rocket 4.3 23:04:17 10° NNW 23:10:05 71° W 23:12:13 39° S
SL-27 R/B 4.0 23:08:59 10° NW 23:11:32 24° W 23:11:32 24° W
NOSS 2-1 (E) 4.3 23:10:07 10° NW 23:15:04 67° SW 23:17:30 38° SSE
Cosmos 44 Rocket 4.0 23:11:07 10° NW 23:16:02 42° WSW 23:16:57 38° SW
Cosmos 1766 3.5 23:12:52 10° N 23:16:46 56° ENE 23:17:13 52° ESE
Meteor 1-15 Rocket 4.2 23:11:52 10° N 23:17:39 86° ENE 23:19:48 41° SSE
Terra 4.2 23:17:57 10° WSW 23:19:55 12° W 23:21:53 10° WNW
Cosmos 2221 Rocket 3.7 23:23:40 52° SE 23:24:30 63° E 23:29:01 10° NNE
COSMOS 2455 3.0 23:19:32 10° NNW 23:25:35 73° NE 23:28:40 30° SE
USA 215 3.9 23:23:43 10° E 23:30:04 56° NNE 23:36:25 10° WNW
ALOS 2 2.7 23:29:20 53° SSW 23:30:06 63° W 23:34:28 10° NNW
Nimbus 7 Rocket 4.4 23:24:33 10° NNE 23:30:27 68° ESE 23:32:34 41° S
COBE Rocket 4.0 23:31:00 47° S 23:32:29 75° W 23:37:42 10° NNW
Cosmos 1535 Rocket 4.5 23:27:09 10° N 23:33:29 86° W 23:36:02 39° S
Cosmos 1300 Rocket 3.6 23:29:14 10° NNW 23:33:36 68° W 23:34:19 57° SSW
Cosmos 1269 Rocket 4.1 23:28:28 10° NNW 23:33:44 65° WSW 23:35:08 46° SSW
USA 81 4.3 23:29:30 10° N 23:34:46 62° E 23:36:30 41° SE
Cosmos 1470 3.9 23:32:11 10° N 23:35:47 33° ENE 23:36:35 30° E
Cosmos 2251 Rocket 4.3 23:35:09 10° NNW 23:40:13 46° ENE 23:42:54 25° ESE
EO 1 Del DPAF 4.4 23:42:38 10° NE 23:45:57 30° E 23:45:57 30° E
Cosmos 1733 3.4 23:43:06 10° NNW 23:46:49 54° W 23:46:57 54° WSW
Cosmos 1842 3.4 23:46:42 54° ESE 23:46:53 55° E 23:50:43 10° NNE
Meteor 1-23 Rocket 4.3 23:46:20 40° SSW 23:48:34 77° WNW 23:54:26 10° N
Thor Agena Rocket 3.6 23:45:52 10° NNE 23:51:10 76° ESE 23:52:46 46° S
ATLAS CENTAUR R/B 3.7 23:50:02 10° W 23:52:53 20° NNW 23:55:50 10° NNE
